Regional Weather Roundup
Issued by NWS Raleigh/Durham, NC

Home | Current Version | Previous Version | Text Only | Print | Product List | Glossary On
Versions: 1 2 3 4 5 6 7 8 9 10 11 12 13 14 15 16 17 18 19 20 21 22 23 24 25 26 27 28 29 30 31 32 33 34 35 36 37 38 39 40 41 42 43 44 45 46 47 48 49 50
000
ASUS42 KRAH 260410
RWRRAH
NORTH CAROLINA WEATHER ROUNDUP
NATIONAL WEATHER SERVICE RALEIGH NC
1200 AM EDT TUE JUL 26 2016

NOTE: "FAIR" INDICATES FEW OR NO CLOUDS BELOW 12,000 FEET WITH NO
SIGNIFICANT WEATHER AND/OR OBSTRUCTIONS TO VISIBILITY.

NCZ001-053-055-056-065-067-260500-
WESTERN NORTH CAROLINA

CITY           SKY/WX    TMP DP  RH WIND       PRES   REMARKS
ASHEVILLE      CLOUDY    73  66  78 SW3       30.15R
JEFFERSON      CLOUDY    70  65  83 CALM      30.17F
MORGANTON      CLEAR     75  71  87 CALM      30.10S
HICKORY        CLEAR     79  73  82 CALM      30.05S
RUTHERFORDTON    N/A     75  75 100 CALM      30.07R
MOUNT AIRY     PTCLDY    79  76  90 CALM      30.06S
BOONE          CLOUDY   N/A N/A N/A W6        30.18F
$$

NCZ021-022-025-041-071-084-088-260500-
CENTRAL NORTH CAROLINA

CITY           SKY/WX    TMP DP  RH WIND       PRES   REMARKS
CHARLOTTE      PTCLDY    83  70  64 SW6       30.04S
GREENSBORO     PTCLDY    84  71  65 SW9       30.02S
WINSTON-SALEM  CLEAR     83  72  69 S6        30.04S
RALEIGH-DURHAM CLOUDY    84  72  67 SW12      30.00S
FORT BRAGG     CLOUDY    83  71  67 SW8       30.02S
FAYETTEVILLE   CLOUDY    82  71  69 S10       30.03R
BURLINGTON     MOCLDY    81  72  74 VRB3      30.01R
LAURINBURG     CLEAR     81  72  74 SW9       30.04R
$$

NCZ011-015-027-028-043-044-047-080-103-260500-
NORTHEASTERN NORTH CAROLINA

CITY           SKY/WX    TMP DP  RH WIND       PRES   REMARKS
ROCKY MT-WILSO CLEAR     82  75  79 S8G18     30.00R
GREENVILLE     CLEAR     81  73  78 SW10G16   30.02S
ELIZABETH CITY PTCLDY    82  74  76 SW13      29.98S
MANTEO           N/A     82  78  89 SW16      30.00S
CAPE HATTERAS  PTCLDY    81  75  82 SW12      30.03S
$$

NCZ078-087-090-091-093-098-101-260500-
SOUTHEASTERN NORTH CAROLINA

CITY           SKY/WX    TMP DP  RH WIND       PRES   REMARKS
LUMBERTON      CLEAR     79  71  76 S7        30.03R
GOLDSBORO      CLOUDY    81  77  87 SW7       30.00S
KINSTON        CLOUDY    81  73  75 S10       30.03R
KENANSVILLE    NOT AVBL
NEW BERN       CLOUDY    79  75  87 SW8       30.04R
CHERRY POINT   CLEAR     81  75  82 SW7       30.05R
BEAUFORT       CLEAR     83  74  74 SW14      30.05R
JACKSONVILLE   CLEAR     79  74  84 SW7       30.04R
WILMINGTON     CLEAR     80  73  79 SW7       30.05R
$$




USA.gov is the U.S. government's official web portal to all federal, state and local government web resources and services.